Regional Weather Roundup
Issued by NWS Northern Indiana

Home | Current Version | Previous Version | Graphics & Text | Print | Product List | Glossary On
Versions: 1 2 3 4 5 6 7 8 9 10 11 12 13 14 15 16 17 18 19 20 21 22 23 24 25 26 27 28 29 30 31 32 33 34 35 36 37 38 39 40 41 42 43 44 45 46 47 48 49 50
000
ASUS43 KIWX 230710
RWRIWX

KIWX WEATHER ROUNDUP
NATIONAL WEATHER SERVICE NORTHERN INDIANA
200 AM EST TUE JAN 23 2018

NOTE: "FAIR" INDICATES FEW OR NO CLOUDS BELOW 12,000 FEET WITH NO
SIGNIFICANT WEATHER AND/OR OBSTRUCTIONS TO VISIBILITY.

* THESE STATIONS ARE NOT UNDER NWS QUALITY CONTROL. THEY ALSO MAY NOT
  REPORT WEATHER SUCH AS PRECIPITATION OR FOG.

INZ001>027-230800-
NORTHERN INDIANA

CITY           SKY/WX    TMP DP  RH WIND       PRES   REMARKS
GARY*          FAIR      38  33  81 S5        29.52S
VALPARAISO     FAIR      37  32  82 MISG      29.51F
MICHIGAN CITY* FAIR      36  32  87 S5        29.52S
LAPORTE*       FAIR      34  32  92 SW6       29.52S WCI  29
KNOX*          FAIR      34  32  93 S7        29.52F WCI  28
SOUTH BEND     FAIR      35  32  88 SW6       29.52F WCI  30
GOSHEN         FAIR      36  33  89 S9        29.53S
MONTICELLO*    CLOUDY    36  32  88 S6        29.55S
LOGANSPORT*    CLOUDY    34  32  93 S7        29.56F WCI  28
ROCHESTER*     MOCLDY    37  36  93 SW5       29.54F
WARSAW*        FAIR      36  34  93 SW3       29.54S
AUBURN*        FAIR     N/A N/A N/A W5        29.55S
FORT WAYNE     MOCLDY    36  34  92 S7        29.56S
HUNTINGTON*    FAIR      36  35  96 S3        29.55S
PERU/GRISSOM   CLOUDY    35  35 100 S7        29.55F WCI  29
MARION*        FAIR      34  33  95 CALM      29.57F

$$
INZ028>050-230800-
CENTRAL INDIANA

CITY           SKY/WX    TMP DP  RH WIND       PRES   REMARKS
LAFAYETTE      CLOUDY    38  34  85 SW7       29.56F
MUNCIE*        FAIR      39  34  82 SW6       29.58F
INDIANAPOLIS   LGT RAIN  40  35  83 SW9       29.58F

$$
MIZ043>046-050>051-056>058-064>065-071>073-077>080-230800-
SOUTHWEST LOWER MICHIGAN

CITY           SKY/WX    TMP DP  RH WIND       PRES   REMARKS
BATTLE CREEK   MOCLDY    39  36  89 SW10      29.49S
BENTON HARBOR  FAIR      39  31  72 SW13      29.49F
COLDWATER*     FAIR      39  37  95 SW9       29.50F
HILLSDALE*     FAIR      37  34  87 SW6       29.49F
HOLLAND        MOCLDY    39  35  86 SW15      29.47R
GRAND RAPIDS   CLOUDY    40  37  89 SW13      29.45S
KALAMAZOO      FAIR      39  33  79 SW8       29.49S
STURGIS*       FAIR      38  35  90 SW7       29.50F
THREE RIVERS*  FAIR      39  36  90 SW7       29.50F

$$
OHZ001>008-015>018-024>025-230800-
NORTHWEST OHIO

CITY           SKY/WX    TMP DP  RH WIND       PRES   REMARKS
WAUSEON*       MOCLDY    39  39 100 W13       29.53R
DEFIANCE       FAIR      38  33  82 SW6       29.56R
FINDLAY        FAIR      42  35  76 W12       29.56R
TOLEDO EXPRESS FAIR      43  40  89 SW15      29.54R
TOLEDO METCALF FAIR      43  39  86 SW10      29.55R
LIMA           FAIR      40  37  89 W10       29.58S

$$
AND FOR LAKE MICHIGAN COASTAL AND OPEN LAKE BUOY OBSERVATIONS

STATION/POSITION TEMP    WIND        PRES    VSBY  WAVE
                 AIR SEA DIR/SP/G                  HT/PER
                 (F)     (DEG/KT/KT) (MB)    (MI)  (FT/S)
CALUMET HARBOR    38     230/  5/  9  998.9S
MICHIGAN CITY     38     190/ 11/ 12   N/A
BURNS HARBOR      39     210/ 14/ 18 1000.0F
SAINT JOSEPH      36     200/  9/ 12 1000.0

$$
&&



USA.gov is the U.S. government's official web portal to all federal, state and local government web resources and services.